Regional Weather Roundup
Issued by NWS

Home | Current Version | Previous Version | Graphics & Text | Print | Product List | Glossary On
Versions: 1 2 3 4 5 6 7 8 9 10 11 12 13 14 15 16 17 18 19 20 21 22 23 24 25 26 27 28 29 30 31 32 33 34 35 36 37 38 39 40 41 42 43 44 45 46 47 48 49 50
000
ASUS45 KBOU 271907
RWRCO

WEATHER ROUNDUP FOR COLORADO
NATIONAL WEATHER SERVICE DENVER/BOULDER CO
1200 PM MST FRI FEB 27 2015

NOTE: "FAIR" INDICATES FEW OR NO CLOUDS BELOW 12000 FEET WITH NO
SIGNIFICANT WEATHER AND/OR OBSTRUCTIONS TO VISIBILITY.

COZ001>005-013-030-031-272000-
...NORTHWEST COLORADO...

CITY           SKY/WX    TMP DP  RH WIND       PRES   REMARKS
CRAIG          SUNNY     26  17  68 VRB3      29.84F
HAYDEN         SUNNY     21  12  68 CALM      29.82F
MEEKER         SUNNY     22  15  75 CALM      29.83F
MOUNT WERNER   NOT AVBL
STEAMBOAT SPGS SUNNY     22  10  60 SW3       29.81F
WALDEN         SUNNY     10   7  85 CALM      29.77F
$$

COZ006>008-011-272000-
...WEST CENTRAL VALLEYS...

CITY           SKY/WX    TMP DP  RH WIND       PRES   REMARKS
GRAND JUNCTION CLOUDY    35  27  72 SW5       29.83F WCI  31
MONTROSE       PTSUNNY   33  24  69 NE6       29.83F WCI  28
EAGLE          PTSUNNY   28  19  69 CALM      29.81F
RIFLE          PTSUNNY   34  21  59 CALM      29.81F
DELTA          LGT SNOW  34  31  88 CALM      29.84F
NUCLA          PTSUNNY   36  23  60 SW12      29.86S
$$

COZ017>023-064>068-272000-
...SOUTHWEST COLORADO...

CITY           SKY/WX    TMP DP  RH WIND       PRES   REMARKS
DURANGO        CLOUDY    28  24  85 E5        29.85S WCI  23
CORTEZ         CLOUDY    32  28  85 SW7       29.86F WCI  26
PAGOSA SPRINGS CLOUDY    30  22  72 S8        29.83F WCI  22
TELLURIDE      CLOUDY    28   8  44 W7        29.78F WCI  20
WOLF CREEK PAS SNOW      10   9  92 SW21G30   29.76S VSB 1/4 WCI  -9
$$

COZ009-010-012-014-032>034-037-058>063-272000-
...CENTRAL COLORADO...

CITY           SKY/WX    TMP DP  RH WIND       PRES   REMARKS
ASPEN          LGT SNOW  27  18  69 CALM      29.75F
BUENA VISTA    CLOUDY    12   2  63 CALM      29.80F
COPPER MTN     CLOUDY    18   7  62 W18       29.67S HAZE    WCI   2
BERTHOUD PASS  HAZE       5  -2  72 NW16G26   29.65F VSB 3/4 WCI -14
COTTONWOOD PAS CLOUDY    14   9  79 CALM      29.72F
GUNNISON       PTSUNNY   25  14  63 S6        29.80F WCI  18
KREMMLING      SUNNY     23  10  58 CALM      29.81F
LEADVILLE      LGT SNOW  19  10  68 CALM      29.70S VSB 1
SALIDA         CLOUDY    17   7  65 CALM      29.90F
SUNLIGHT       LGT SNOW  19  16  86 W3          N/A
WILKERSON PASS SUNNY     16  10  79 W5        29.71F WCI   9
$$

COZ069>075-272000-
...SAN LUIS VALLEY/SANGRE DE CRISTO MOUNTAINS...

CITY           SKY/WX    TMP DP  RH WIND       PRES   REMARKS
ALAMOSA        MOSUNNY   24  15  68 S9        29.82F WCI  14
LA VETA PASS   LGT SNOW  18  12  79 MISG      29.74F VSB 3/4
SAGUACHE       FLURRIES  23  16  74 S8        29.82F WCI  14
$$

COZ035-036-038>040-272000-
...NORTHERN COLORADO FRONT RANGE...

CITY           SKY/WX    TMP DP  RH WIND       PRES   REMARKS
DENVER INTL AP MOSUNNY   15   3  59 S3        29.95F
DMNS CITY PARK   N/A     20   8  59 N6        29.96F WCI  12
AURORA         MOSUNNY   15   2  55 S6        29.94F WCI   7
FRONT RANGE AP MOSUNNY   18   7  62 S10G18    29.96F WCI   6
ERIE MUNI ARPT SUNNY     13   9  83 NE3       29.99F
BOULDER MUN AP LGT SNOW  14   9  79 N3        29.97F
CENTENNIAL     MOSUNNY   15   4  61 E6        29.92F WCI   6
BROOMFIELD     PTSUNNY   16   9  73 NE5       29.95F WCI   9
FORT COLLINS   MOSUNNY   12   7  79 E3        30.01F
LONGMONT       CLOUDY    24   9  53 NE5       30.02F WCI  18
$$

COZ041-046-047-076>085-087-088-272000-
...PIKES PEAK/PALMER DIVIDE AND SOUTHERN FOOTHILLS...

CITY           SKY/WX    TMP DP  RH WIND       PRES   REMARKS
COLO. SPRINGS  LGT SNOW   9   5  84 SE14      29.95F VSB 3/4 WCI  -7
A. F. ACADEMY  CLOUDY    10   1  67 S10       29.90F WCI  -4
ELLICOTT       NOT AVBL
FALCON         LGT SNOW   9   4  79 SE10      29.91F WCI  -5
FORT CARSON    NOT AVBL
LIMON          LGT SNOW   9   4  80 SE24      30.02F WCI -12
MONUMENT HILL  MOSUNNY   12   3  67 S16       29.84F HAZE    WCI  -4
TRINIDAD       SUNNY     17   7  64 NE6       29.95F WCI   9
$$

COZ042>045-048>051-090-091-272000-
...NORTHEAST COLORADO...

CITY           SKY/WX    TMP DP  RH WIND       PRES   REMARKS
GREELEY ARPT   PTSUNNY   19   7  58 S8        30.01F WCI   9
AKRON          PTSUNNY   15   8  73 S22G32    30.07F WCI  -3
BURLINGTON     CLOUDY    14   6  70 S24       30.16F HAZE    WCI  -5
WRAY           CLOUDY    20  10  63 SE17G26   30.21F WCI   6
STERLING       CLOUDY    21  10  63 S22G32    30.12F WCI   5
HOLYOKE        NOT AVBL
FORT MORGAN    CLOUDY    18   8  64 S18       30.07F WCI   2
$$

COZ086-089-092>099-272000-
...SOUTHEAST COLORADO...

CITY           SKY/WX    TMP DP  RH WIND       PRES   REMARKS
PUEBLO         PTSUNNY   17  10  74 NE5       30.04F WCI  10
LA JUNTA         N/A     20  10  65 MISG      30.10F
LAMAR          LGT SNOW  15   8  73 SE21      30.19F WCI  -2
SPRINGFIELD      N/A     10   6  84 S26       30.15F WCI -11
$$



USA.gov is the U.S. government's official web portal to all federal, state and local government web resources and services.